�N����,����,�~����,�C��,���x,�C��,����,���ϕ���,�ő�u�ԕ���,�ő厞����,���˗�,�I�_���x,�n�����x,�ő啗���N��,DTYPE
"21/01/09","00:10",0.0,-2.7,62.0,1008.1,287.8,2.5,5.5,326.6,0.00,-8.9,2.5,"00:04:56",1
"21/01/09","00:20",0.0,-2.7,62.4,1008.1,275.6,2.1,3.9,315.3,0.00,-8.8,2.5,"00:10:32",1
"21/01/09","00:30",0.0,-2.8,62.9,1008.3,282.2,2.0,3.2,309.8,0.00,-8.8,2.7,"00:26:32",1
"21/01/09","00:40",0.0,-3.0,63.5,1008.3,293.3,2.5,4.2,311.9,0.00,-8.9,2.6,"00:32:16",1
"21/01/09","00:50",0.0,-3.0,64.3,1008.6,284.5,2.2,3.7,304.2,0.00,-8.7,2.5,"00:49:20",1
"21/01/09","01:00",0.0,-2.9,64.6,1008.6,283.9,2.5,6.4,306.6,0.00,-8.6,2.6,"00:51:20",1
"21/01/09","01:10",0.0,-3.0,65.2,1008.1,288.0,2.3,3.3,306.8,0.00,-8.6,2.6,"01:04:24",1
"21/01/09","01:20",0.0,-3.2,65.9,1008.3,290.0,2.2,2.9,318.2,0.00,-8.6,2.5,"01:10:24",1
"21/01/09","01:30",0.0,-3.1,66.1,1008.1,273.7,2.0,3.3,259.5,0.00,-8.5,2.6,"01:20:24",1
"21/01/09","01:40",0.0,-3.1,66.5,1007.8,276.0,2.2,3.9,268.1,0.00,-8.4,2.3,"01:33:28",1
"21/01/09","01:50",0.0,-3.2,67.0,1008.1,276.8,2.3,3.6,294.8,0.00,-8.4,2.3,"01:45:36",1
"21/01/09","02:00",0.0,-3.0,67.1,1008.3,278.1,2.7,5.9,306.8,0.00,-8.2,2.3,"01:52:24",1
"21/01/09","02:10",0.0,-3.2,67.3,1008.8,294.8,2.6,3.6,318.3,0.00,-8.4,2.5,"02:06:00",1
"21/01/09","02:20",0.0,-3.3,67.7,1008.3,306.0,2.7,4.5,320.0,0.00,-8.4,2.4,"02:13:44",1
"21/01/09","02:30",0.0,-3.4,68.2,1008.3,307.8,2.6,4.5,313.4,0.00,-8.4,2.2,"02:21:44",1
"21/01/09","02:40",0.0,-3.5,68.8,1007.8,314.0,2.7,4.2,333.3,0.00,-8.4,2.2,"02:34:16",1
"21/01/09","02:50",0.0,-3.7,69.5,1007.8,315.1,2.5,3.5,327.4,0.00,-8.4,2.1,"02:46:24",1
"21/01/09","03:00",0.0,-3.9,70.4,1008.1,322.7,2.8,4.4,335.9,0.00,-8.4,2.3,"02:50:32",1
"21/01/09","03:10",0.0,-3.9,71.2,1007.6,310.0,3.2,4.2,298.3,0.00,-8.3,2.3,"03:09:14",1
"21/01/09","03:20",0.0,-3.9,71.7,1008.1,312.4,2.8,3.4,331.4,0.00,-8.2,2.1,"03:19:12",1
"21/01/09","03:30",0.0,-3.9,72.0,1007.6,312.6,3.1,4.7,316.4,0.00,-8.2,2.2,"03:27:30",1
"21/01/09","03:40",0.0,-4.1,72.3,1007.6,289.5,2.5,3.3,309.7,0.00,-8.3,2.2,"03:30:38",1
"21/01/09","03:50",0.0,-4.1,72.8,1007.6,299.8,2.1,2.1,293.3,0.00,-8.2,2.1,"03:43:18",1
"21/01/09","04:00",0.0,-4.1,73.2,1007.6,309.6,2.6,2.6,309.6,0.00,-8.1,2.1,"03:58:22",1
"21/01/09","04:10",0.0,-4.1,73.5,1007.6,302.4,2.6,2.8,317.3,0.00,-8.1,2.1,"04:02:26",1
"21/01/09","04:20",0.0,-4.3,73.9,1007.8,305.9,2.6,2.9,324.1,0.00,-8.2,1.9,"04:19:28",1
"21/01/09","04:30",0.0,-4.4,74.2,1007.1,296.1,2.2,2.8,311.8,0.00,-8.3,2.2,"04:21:06",1
"21/01/09","04:40",0.0,-4.6,74.5,1007.1,289.0,1.8,2.2,297.5,0.00,-8.4,1.9,"04:30:12",1
"21/01/09","04:50",0.0,-5.0,74.8,1007.4,289.5,1.6,1.9,288.5,0.00,-8.7,1.9,"04:41:12",1
"21/01/09","05:00",0.0,-5.2,75.2,1007.6,291.8,1.5,2.0,309.6,0.00,-8.9,2.0,"04:56:08",1
"21/01/09","05:10",0.0,-5.0,75.8,1007.1,304.5,2.3,3.5,322.6,0.00,-8.6,2.0,"05:09:36",1
"21/01/09","05:20",0.0,-4.6,76.1,1007.8,321.4,3.4,4.2,314.8,0.00,-8.1,1.7,"05:16:18",1
"21/01/09","05:30",0.0,-4.4,76.2,1007.1,310.6,4.0,5.0,325.9,0.00,-7.9,1.9,"05:26:50",1
"21/01/09","05:40",0.0,-4.5,76.4,1007.1,309.5,3.7,4.5,312.5,0.00,-8.0,1.9,"05:31:00",1
"21/01/09","05:50",0.0,-4.5,76.5,1007.1,299.8,3.7,4.3,318.6,0.00,-8.0,1.8,"05:47:20",1
"21/01/09","06:00",0.0,-4.4,76.7,1007.4,309.0,3.4,3.5,304.6,0.00,-7.8,2.1,"05:58:30",1
"21/01/09","06:10",0.0,-4.1,76.6,1007.6,298.7,3.6,5.9,327.1,0.00,-7.6,2.0,"06:09:42",1
"21/01/09","06:20",0.0,-3.8,76.3,1007.6,289.8,3.4,5.8,338.1,0.00,-7.3,1.7,"06:10:08",1
"21/01/09","06:30",0.0,-3.7,75.9,1007.4,297.0,3.4,4.8,321.7,0.00,-7.3,1.6,"06:22:24",1
"21/01/09","06:40",0.0,-3.5,75.4,1007.6,294.2,3.6,5.7,301.6,0.00,-7.2,1.8,"06:34:24",1
"21/01/09","06:50",0.0,-3.4,75.0,1008.1,293.8,3.7,6.0,298.6,0.00,-7.1,1.8,"06:44:32",1
"21/01/09","07:00",0.0,-3.5,74.7,1008.1,286.5,3.4,4.8,294.8,0.00,-7.3,1.8,"06:58:24",1
"21/01/09","07:10",0.0,-3.2,74.1,1008.3,289.5,4.0,6.2,308.7,0.00,-7.1,1.9,"07:08:16",1
"21/01/09","07:20",0.0,-3.0,73.4,1008.1,296.9,4.5,6.8,310.8,0.00,-7.0,1.7,"07:18:32",1
"21/01/09","07:30",0.0,-2.9,72.7,1008.3,298.5,4.4,6.7,324.4,0.00,-7.1,1.9,"07:23:36",1
"21/01/09","07:40",0.0,-2.8,72.1,1008.6,302.5,4.4,7.4,281.6,0.00,-7.1,1.7,"07:37:06",1
"21/01/09","07:50",0.0,-2.6,71.8,1008.6,295.3,3.4,5.7,310.9,0.00,-6.9,1.9,"07:40:08",1
"21/01/09","08:00",0.0,-2.5,71.3,1008.8,296.5,3.6,6.0,351.4,0.00,-6.9,1.8,"07:58:14",1
"21/01/09","08:10",0.0,-2.3,70.6,1009.0,303.2,4.0,7.2,356.4,0.01,-6.9,1.8,"08:05:36",1
"21/01/09","08:20",0.0,-2.1,69.9,1009.3,301.2,4.1,6.7,314.5,0.02,-6.8,1.6,"08:16:18",1
"21/01/09","08:30",0.0,-1.8,69.2,1009.3,288.3,4.0,6.2,305.0,0.04,-6.7,1.7,"08:25:28",1
"21/01/09","08:40",0.0,-1.6,68.6,1009.5,289.7,3.9,7.1,319.5,0.06,-6.6,1.8,"08:32:40",1
"21/01/09","08:50",0.0,-1.5,68.1,1009.5,287.2,4.0,5.9,333.0,0.08,-6.6,1.7,"08:43:20",1
"21/01/09","09:00",0.0,-1.2,67.5,1010.0,286.7,3.9,6.0,285.3,0.10,-6.4,1.9,"08:53:58",1
"21/01/09","09:10",0.0,-0.9,66.5,1010.0,281.2,3.5,5.5,255.7,0.13,-6.3,1.7,"09:02:16",1
"21/01/09","09:20",0.0,-0.7,65.4,1010.0,276.6,3.7,7.0,330.1,0.16,-6.3,2.0,"09:10:56",1
"21/01/09","09:30",0.0,-1.0,64.9,1009.5,287.7,4.0,6.7,309.6,0.11,-6.7,1.9,"09:29:48",1
"21/01/09","09:40",0.0,-0.4,64.1,1010.0,283.4,4.5,8.1,325.0,0.21,-6.3,2.1,"09:33:36",1
"21/01/09","09:50",0.0,-0.2,61.9,1010.0,284.6,3.9,6.2,320.2,0.18,-6.6,2.1,"09:41:44",1
"21/01/09","10:00",0.0,-0.3,60.7,1009.3,288.1,4.5,6.8,303.9,0.11,-6.9,2.0,"09:57:28",1
"21/01/09","10:10",0.0,0.5,58.8,1009.7,276.6,4.4,7.5,269.5,0.27,-6.6,2.4,"10:05:28",1
"21/01/09","10:20",0.0,0.7,56.0,1009.7,269.8,4.4,8.6,305.6,0.30,-7.0,2.4,"10:15:00",1
"21/01/09","10:30",0.0,1.0,54.3,1009.7,280.9,4.4,6.5,312.7,0.32,-7.1,2.6,"10:29:30",1
"21/01/09","10:40",0.0,1.0,52.7,1009.5,272.1,4.5,7.2,302.7,0.34,-7.5,2.7,"10:39:04",1
"21/01/09","10:50",0.0,1.5,52.0,1009.5,268.1,4.1,6.5,256.8,0.35,-7.2,2.6,"10:40:50",1
"21/01/09","11:00",0.0,1.6,51.0,1009.5,271.6,4.4,7.1,264.7,0.37,-7.4,2.9,"10:53:30",1
"21/01/09","11:10",0.0,1.7,50.5,1009.5,273.6,4.5,8.0,247.3,0.38,-7.4,3.2,"11:05:48",1
"21/01/09","11:20",0.0,2.1,50.2,1009.5,281.3,4.4,7.3,333.1,0.39,-7.1,3.3,"11:11:06",1
"21/01/09","11:30",0.0,2.0,49.2,1009.0,283.3,4.9,8.7,312.9,0.40,-7.5,3.5,"11:20:32",1
"21/01/09","11:40",0.0,2.0,49.6,1009.0,283.4,5.1,7.7,339.8,0.41,-7.4,3.6,"11:37:04",1
"21/01/09","11:50",0.0,2.2,48.2,1009.0,286.4,5.1,9.3,326.3,0.42,-7.6,3.5,"11:47:38",1
"21/01/09","12:00",0.0,2.3,47.3,1008.8,278.1,5.0,7.5,259.3,0.42,-7.7,3.8,"11:52:00",1
"21/01/09","12:10",0.0,2.6,47.2,1008.6,271.5,4.9,8.0,274.1,0.43,-7.5,4.1,"12:09:56",1
"21/01/09","12:20",0.0,2.8,46.9,1008.3,276.8,5.0,7.1,275.8,0.43,-7.4,4.4,"12:15:12",1
"21/01/09","12:30",0.0,2.7,46.8,1008.3,276.3,5.5,10.0,313.5,0.43,-7.5,4.4,"12:25:56",1
"21/01/09","12:40",0.0,3.2,45.9,1008.3,271.5,4.2,7.0,286.3,0.43,-7.3,4.6,"12:37:34",1
"21/01/09","12:50",0.0,3.3,45.4,1008.3,279.8,4.5,6.8,291.0,0.42,-7.3,4.9,"12:44:24",1
"21/01/09","13:00",0.0,3.6,44.7,1008.6,275.5,4.6,6.4,315.6,0.42,-7.3,5.0,"12:55:44",1
"21/01/09","13:10",0.0,3.4,44.4,1008.1,279.9,5.1,8.1,253.7,0.41,-7.5,5.1,"13:02:22",1
"21/01/09","13:20",0.0,3.6,43.3,1008.3,283.6,5.0,9.4,310.6,0.40,-7.7,5.2,"13:15:30",1
"21/01/09","13:30",0.0,3.4,42.7,1008.1,274.4,5.2,10.2,258.4,0.39,-8.0,5.3,"13:22:50",1
"21/01/09","13:40",0.0,3.6,42.7,1008.3,273.7,4.7,6.4,273.9,0.38,-7.9,5.6,"13:33:40",1
"21/01/09","13:50",0.0,3.7,42.5,1007.8,288.8,4.7,7.4,316.8,0.36,-7.8,5.8,"13:40:02",1
"21/01/09","14:00",0.0,4.0,42.1,1007.8,278.2,4.7,7.1,298.0,0.35,-7.7,5.7,"13:53:48",1
"21/01/09","14:10",0.0,4.0,41.5,1007.8,285.4,5.2,8.1,331.1,0.33,-7.9,5.8,"14:03:08",1
"21/01/09","14:20",0.0,3.8,40.4,1008.1,289.8,5.6,7.7,294.9,0.31,-8.4,6.0,"14:11:02",1
"21/01/09","14:30",0.0,3.9,40.1,1008.1,277.0,5.4,8.8,306.7,0.29,-8.4,5.9,"14:22:42",1
"21/01/09","14:40",0.0,4.2,40.1,1007.8,287.6,4.6,7.9,311.0,0.27,-8.1,6.1,"14:36:38",1
"21/01/09","14:50",0.0,3.7,39.5,1007.6,278.9,5.9,8.0,295.7,0.25,-8.8,5.8,"14:45:40",1
"21/01/09","15:00",0.0,3.8,39.2,1007.8,277.2,5.0,7.0,274.7,0.22,-8.8,6.0,"14:55:44",1
"21/01/09","15:10",0.0,3.8,39.3,1008.1,293.3,4.7,7.1,324.4,0.18,-8.7,5.8,"15:09:14",1
"21/01/09","15:20",0.0,3.0,39.3,1008.1,302.4,5.4,9.0,315.3,0.06,-9.5,5.6,"15:11:14",1
"21/01/09","15:30",0.0,2.6,39.6,1007.6,293.6,4.2,7.8,340.6,0.02,-9.7,5.5,"15:24:40",1
"21/01/09","15:40",0.0,2.6,40.2,1007.6,284.8,4.1,6.4,308.8,0.04,-9.5,5.5,"15:38:56",1
"21/01/09","15:50",0.0,3.0,39.4,1007.4,300.3,5.0,9.6,328.9,0.08,-9.4,5.4,"15:41:14",1
"21/01/09","16:00",0.0,3.0,39.1,1007.4,287.2,4.5,8.8,325.2,0.08,-9.5,5.3,"15:50:56",1
"21/01/09","16:10",0.0,2.9,38.6,1007.4,303.4,4.2,8.6,324.0,0.05,-9.8,5.2,"16:07:16",1
"21/01/09","16:20",0.0,2.9,38.5,1007.4,285.1,4.1,7.2,304.4,0.04,-9.8,5.2,"16:10:16",1
"21/01/09","16:30",0.0,2.6,38.7,1007.4,298.0,4.0,7.0,334.4,0.01,-10.0,5.0,"16:27:10",1
"21/01/09","16:40",0.0,2.3,40.3,1007.8,286.4,2.8,5.5,307.8,0.00,-9.8,4.9,"16:38:40",1
"21/01/09","16:50",0.0,2.1,41.3,1007.6,272.6,2.7,5.0,235.2,0.00,-9.6,4.9,"16:48:50",1
"21/01/09","17:00",0.0,2.0,41.3,1007.4,275.4,2.8,5.1,231.4,0.00,-9.7,4.8,"16:54:24",1
"21/01/09","17:10",0.0,1.9,41.4,1007.1,271.1,3.1,6.6,294.0,0.00,-9.8,4.7,"17:03:50",1
"21/01/09","17:20",0.0,1.7,41.6,1007.4,266.5,2.8,4.2,245.1,0.00,-9.9,4.5,"17:15:44",1
"21/01/09","17:30",0.0,1.6,41.4,1007.6,267.1,2.7,4.8,259.0,0.00,-10.1,4.4,"17:25:44",1
"21/01/09","17:40",0.0,1.4,42.0,1007.8,256.9,2.6,5.5,255.7,0.00,-10.1,4.3,"17:39:28",1
"21/01/09","17:50",0.0,1.4,43.2,1007.8,258.3,3.5,8.1,226.6,0.00,-9.7,4.3,"17:48:00",1
"21/01/09","18:00",0.0,1.3,43.7,1008.6,269.6,3.5,5.6,307.6,0.00,-9.7,4.2,"17:51:44",1
"21/01/09","18:10",0.0,1.2,44.8,1008.8,263.8,3.0,5.1,296.8,0.00,-9.4,4.2,"18:02:10",1
"21/01/09","18:20",0.0,1.1,46.1,1008.3,276.1,3.6,6.7,225.7,0.00,-9.2,4.2,"18:17:12",1
"21/01/09","18:30",0.0,0.9,46.9,1008.6,275.1,2.7,5.0,315.9,0.00,-9.1,3.8,"18:26:40",1
"21/01/09","18:40",0.0,0.7,47.9,1009.0,269.6,2.5,4.3,302.4,0.00,-9.0,3.9,"18:34:08",1
"21/01/09","18:50",0.0,0.7,48.1,1008.8,276.4,2.7,4.2,321.4,0.00,-9.0,3.8,"18:42:08",1
"21/01/09","19:00",0.0,0.8,47.7,1008.8,278.9,3.1,4.9,250.2,0.00,-9.0,3.8,"18:54:14",1
"21/01/09","19:10",0.0,0.6,48.0,1009.0,279.6,3.0,6.0,234.6,0.00,-9.1,3.8,"19:04:00",1
"21/01/09","19:20",0.0,0.5,48.3,1009.0,283.1,2.7,4.1,262.2,0.00,-9.1,3.6,"19:11:04",1
"21/01/09","19:30",0.0,0.4,49.3,1009.0,273.4,2.7,4.9,252.2,0.00,-8.9,3.5,"19:26:20",1
"21/01/09","19:40",0.0,0.3,49.8,1008.8,277.1,3.0,5.0,257.1,0.00,-8.9,3.7,"19:36:00",1
"21/01/09","19:50",0.0,0.3,50.2,1008.8,266.3,2.7,4.4,236.1,0.00,-8.8,3.7,"19:47:52",1
"21/01/09","20:00",0.0,0.2,51.2,1008.8,271.1,3.1,5.4,302.7,0.00,-8.6,3.4,"19:50:56",1
"21/01/09","20:10",0.0,0.1,51.9,1008.8,270.9,2.8,4.5,293.7,0.00,-8.6,3.2,"20:06:44",1
"21/01/09","20:20",0.0,0.1,52.4,1008.8,271.3,3.0,4.7,271.8,0.00,-8.4,3.4,"20:11:38",1
"21/01/09","20:30",0.0,0.0,53.2,1008.8,275.5,2.6,5.2,310.4,0.00,-8.3,3.3,"20:27:08",1
"21/01/09","20:40",0.0,-0.1,53.9,1009.0,275.3,2.8,5.2,232.7,0.00,-8.3,3.2,"20:36:40",1
"21/01/09","20:50",0.0,-0.4,55.1,1008.6,246.5,1.6,3.4,274.1,0.00,-8.3,3.2,"20:45:20",1
"21/01/09","21:00",0.0,-0.3,56.0,1009.0,245.5,2.2,4.9,227.9,0.00,-8.0,3.3,"20:55:52",1
"21/01/09","21:10",0.0,-0.5,56.9,1009.0,265.8,2.1,5.7,316.3,0.00,-7.9,3.1,"21:07:34",1
"21/01/09","21:20",0.0,-0.5,57.2,1008.8,277.3,2.3,4.1,284.2,0.00,-7.9,3.1,"21:19:28",1
"21/01/09","21:30",0.0,-0.8,57.7,1009.0,283.9,1.7,4.5,228.3,0.00,-8.1,3.0,"21:24:56",1
"21/01/09","21:40",0.0,-1.0,58.6,1008.3,318.2,1.7,3.3,334.1,0.00,-8.0,2.9,"21:35:36",1
"21/01/09","21:50",0.0,-1.2,59.7,1008.6,259.1,1.3,4.4,311.6,0.00,-8.0,3.0,"21:46:08",1
"21/01/09","22:00",0.0,-1.1,59.2,1008.8,299.5,1.7,7.1,214.1,0.00,-8.0,3.0,"21:50:08",1
"21/01/09","22:10",0.0,-1.2,59.1,1009.0,316.5,1.7,2.9,333.3,0.00,-8.1,2.9,"22:04:16",1
"21/01/09","22:20",0.0,-1.3,59.7,1009.0,323.2,2.1,3.9,309.7,0.00,-8.1,2.7,"22:17:04",1
"21/01/09","22:30",0.0,-1.4,59.5,1008.8,305.8,1.3,2.7,298.5,0.00,-8.2,2.6,"22:21:36",1
"21/01/09","22:40",0.0,-1.4,60.0,1009.0,329.4,2.5,4.8,341.6,0.00,-8.1,2.7,"22:35:44",1
"21/01/09","22:50",0.0,-1.5,60.1,1009.0,314.3,1.8,2.7,341.5,0.00,-8.2,2.6,"22:48:40",1
"21/01/09","23:00",0.0,-1.9,61.0,1009.0,302.6,1.6,2.2,307.5,0.00,-8.4,2.6,"22:56:16",1
"21/01/09","23:10",0.0,-1.9,62.8,1009.0,250.8,1.2,3.4,241.5,0.00,-8.0,2.7,"23:05:28",1
"21/01/09","23:20",0.0,-1.9,62.7,1009.3,259.1,1.2,1.9,229.2,0.00,-8.0,2.6,"23:18:48",1
"21/01/09","23:30",0.0,-2.0,62.5,1009.5,266.6,1.3,2.2,278.3,0.00,-8.2,2.3,"23:27:12",1
"21/01/09","23:40",0.0,-2.0,62.3,1009.7,279.8,0.8,1.6,294.9,0.00,-8.2,2.5,"23:30:02",1
"21/01/09","23:50",0.0,-2.3,62.4,1009.5,310.6,1.6,2.5,318.4,0.00,-8.5,2.5,"23:49:04",1
"21/01/09","24:00",0.0,-2.7,63.5,1009.3,293.7,1.6,2.4,321.9,0.00,-8.6,2.5,"23:50:16",1
